Time,TemperatureF,DewpointF,PressureIn,WindDirection,WindDirectionDegrees,WindSpeedMPH,WindSpeedGustMPH,Humidity,HourlyPrecipIn,Conditions,Clouds,dailyrainin,SoftwareType,DateUTC
2013-05-21 00:09:00,78.3,75.0,29.93,SE,125,0.0,-999.0,88,-99.99,,,0.00,weatherlink.com 1.10,2013-05-21 05:09:00,
2013-05-21 00:24:00,78.3,75.0,29.93,SE,132,0.0,-999.0,88,-99.99,,,0.00,weatherlink.com 1.10,2013-05-21 05:24:00,
2013-05-21 00:39:00,78.2,74.0,29.93,ESE,104,2.0,-999.0,88,-99.99,,,0.00,weatherlink.com 1.10,2013-05-21 05:39:00,
2013-05-21 00:54:00,78.1,74.0,29.93,SE,130,0.0,-999.0,88,-99.99,,,0.00,weatherlink.com 1.10,2013-05-21 05:54:00,
2013-05-21 01:09:00,77.9,74.0,29.93,ESE,121,0.0,-999.0,88,-99.99,,,0.00,weatherlink.com 1.10,2013-05-21 06:09:00,
2013-05-21 01:24:00,77.7,74.0,29.94,SSE,153,0.0,-999.0,89,-99.99,,,0.00,weatherlink.com 1.10,2013-05-21 06:24:00,
2013-05-21 01:39:00,77.6,74.0,29.94,South,173,0.0,-999.0,89,-99.99,,,0.00,weatherlink.com 1.10,2013-05-21 06:39:00,
2013-05-21 01:54:00,77.6,74.0,29.94,SE,146,0.0,-999.0,89,-99.99,,,0.00,weatherlink.com 1.10,2013-05-21 06:54:00,
2013-05-21 02:09:00,77.6,74.0,29.93,SE,135,1.0,-999.0,89,-99.99,,,0.00,weatherlink.com 1.10,2013-05-21 07:09:00,
2013-05-21 02:24:00,77.4,74.0,29.93,SE,131,0.0,-999.0,90,-99.99,,,0.00,weatherlink.com 1.10,2013-05-21 07:24:00,
2013-05-21 02:39:00,77.4,74.0,29.92,South,174,0.0,-999.0,90,-99.99,,,0.00,weatherlink.com 1.10,2013-05-21 07:39:00,
2013-05-21 02:54:00,77.3,74.0,29.92,SSE,168,0.0,-999.0,90,-99.99,,,0.00,weatherlink.com 1.10,2013-05-21 07:54:00,
2013-05-21 03:10:00,77.2,74.0,29.92,SSE,168,0.0,-999.0,90,-99.99,,,0.00,weatherlink.com 1.10,2013-05-21 08:10:00,
2013-05-21 03:25:00,77.2,74.0,29.91,SSE,168,0.0,-999.0,90,-99.99,,,0.00,weatherlink.com 1.10,2013-05-21 08:25:00,
2013-05-21 03:40:00,77.1,74.0,29.91,SSE,168,0.0,-999.0,91,-99.99,,,0.00,weatherlink.com 1.10,2013-05-21 08:40:00,
2013-05-21 03:55:00,77.0,74.0,29.91,SE,134,0.0,-999.0,91,-99.99,,,0.00,weatherlink.com 1.10,2013-05-21 08:55:00,
2013-05-21 04:10:00,76.9,74.0,29.91,SE,135,0.0,-999.0,91,-99.99,,,0.00,weatherlink.com 1.10,2013-05-21 09:10:00,
2013-05-21 04:25:00,76.8,74.0,29.92,East,90,1.0,-999.0,91,-99.99,,,0.00,weatherlink.com 1.10,2013-05-21 09:25:00,
2013-05-21 04:40:00,76.7,74.0,29.91,ESE,117,0.0,-999.0,91,-99.99,,,0.00,weatherlink.com 1.10,2013-05-21 09:40:00,
2013-05-21 04:55:00,76.6,74.0,29.91,ESE,116,1.0,-999.0,91,-99.99,,,0.00,weatherlink.com 1.10,2013-05-21 09:55:00,
2013-05-21 05:10:00,76.5,74.0,29.92,ESE,116,0.0,-999.0,91,-99.99,,,0.00,weatherlink.com 1.10,2013-05-21 10:10:00,
2013-05-21 05:25:00,76.2,74.0,29.92,ESE,116,0.0,-999.0,91,-99.99,,,0.00,weatherlink.com 1.10,2013-05-21 10:25:00,
2013-05-21 05:40:00,76.0,74.0,29.92,ESE,116,0.0,-999.0,92,-99.99,,,0.00,weatherlink.com 1.10,2013-05-21 10:40:00,
2013-05-21 05:55:00,75.7,74.0,29.92,ESE,116,0.0,-999.0,93,-99.99,,,0.00,weatherlink.com 1.10,2013-05-21 10:55:00,
2013-05-21 06:10:00,75.4,73.0,29.93,ESE,116,0.0,-999.0,93,-99.99,,,0.00,weatherlink.com 1.10,2013-05-21 11:10:00,
2013-05-21 06:25:00,75.2,73.0,29.93,ESE,116,0.0,-999.0,93,-99.99,,,0.00,weatherlink.com 1.10,2013-05-21 11:25:00,
2013-05-21 06:40:00,75.0,73.0,29.93,ESE,116,2.0,-999.0,94,-99.99,,,0.00,weatherlink.com 1.10,2013-05-21 11:40:00,
2013-05-21 06:55:00,74.9,73.0,29.93,ESE,111,0.0,-999.0,94,-99.99,,,0.00,weatherlink.com 1.10,2013-05-21 11:55:00,
2013-05-21 07:10:00,75.1,73.0,29.94,ESE,111,0.0,-999.0,94,-99.99,,,0.00,weatherlink.com 1.10,2013-05-21 12:10:00,
2013-05-21 07:25:00,75.5,74.0,29.94,ESE,111,1.0,-999.0,94,-99.99,,,0.00,weatherlink.com 1.10,2013-05-21 12:25:00,
2013-05-21 07:40:00,76.2,74.0,29.95,East,100,0.0,-999.0,94,-99.99,,,0.00,weatherlink.com 1.10,2013-05-21 12:40:00,
2013-05-21 07:55:00,77.0,75.0,29.95,ESE,103,4.0,-999.0,93,-99.99,,,0.00,weatherlink.com 1.10,2013-05-21 12:55:00,
2013-05-21 08:10:00,77.4,75.0,29.95,East,93,1.0,-999.0,92,-99.99,,,0.00,weatherlink.com 1.10,2013-05-21 13:10:00,
2013-05-21 08:25:00,78.1,75.0,29.94,ESE,122,0.0,-999.0,90,-99.99,,,0.00,weatherlink.com 1.10,2013-05-21 13:25:00,
2013-05-21 08:40:00,79.6,76.0,29.95,SE,144,4.0,-999.0,87,-99.99,,,0.00,weatherlink.com 1.10,2013-05-21 13:40:00,
2013-05-21 08:55:00,80.5,75.0,29.95,SE,145,0.0,-999.0,84,-99.99,,,0.00,weatherlink.com 1.10,2013-05-21 13:55:00,
2013-05-21 09:10:00,80.3,75.0,29.95,SE,130,1.0,-999.0,83,-99.99,,,0.00,weatherlink.com 1.10,2013-05-21 14:10:00,
2013-05-21 09:25:00,81.6,76.0,29.95,SE,125,2.0,-999.0,82,-99.99,,,0.00,weatherlink.com 1.10,2013-05-21 14:25:00,
2013-05-21 09:40:00,83.4,76.0,29.95,East,92,4.0,-999.0,79,-99.99,,,0.00,weatherlink.com 1.10,2013-05-21 14:40:00,
2013-05-21 09:55:00,83.6,75.0,29.95,SSW,199,3.0,-999.0,76,-99.99,,,0.00,weatherlink.com 1.10,2013-05-21 14:55:00,
2013-05-21 10:10:00,83.8,75.0,29.94,ESE,115,0.0,-999.0,75,-99.99,,,0.00,weatherlink.com 1.10,2013-05-21 15:10:00,
2013-05-21 10:25:00,85.0,75.0,29.94,South,172,1.0,-999.0,72,-99.99,,,0.00,weatherlink.com 1.10,2013-05-21 15:25:00,
2013-05-21 10:40:00,85.3,75.0,29.94,SSW,195,2.0,-999.0,71,-99.99,,,0.00,weatherlink.com 1.10,2013-05-21 15:40:00,
2013-05-21 10:55:00,85.6,75.0,29.94,ESE,123,6.0,-999.0,71,-99.99,,,0.00,weatherlink.com 1.10,2013-05-21 15:55:00,
2013-05-21 11:10:00,87.4,77.0,29.94,SSE,167,1.0,-999.0,70,-99.99,,,0.00,weatherlink.com 1.10,2013-05-21 16:10:00,
2013-05-21 11:25:00,87.6,75.0,29.94,ESE,115,0.0,-999.0,67,-99.99,,,0.00,weatherlink.com 1.10,2013-05-21 16:25:00,
2013-05-21 11:40:00,88.3,76.0,29.93,South,184,0.0,-999.0,67,-99.99,,,0.00,weatherlink.com 1.10,2013-05-21 16:40:00,
2013-05-21 11:55:00,88.2,77.0,29.93,South,188,1.0,-999.0,69,-99.99,,,0.00,weatherlink.com 1.10,2013-05-21 16:55:00,
2013-05-21 12:10:00,89.5,78.0,29.93,SSE,148,0.0,-999.0,68,-99.99,,,0.00,weatherlink.com 1.10,2013-05-21 17:10:00,
2013-05-21 12:25:00,90.0,76.0,29.92,SSW,199,1.0,-999.0,64,-99.99,,,0.00,weatherlink.com 1.10,2013-05-21 17:25:00,
2013-05-21 12:41:00,90.2,77.0,29.91,SSE,151,0.0,-999.0,65,-99.99,,,0.00,weatherlink.com 1.10,2013-05-21 17:41:00,
2013-05-21 12:55:00,89.8,76.0,29.91,SSW,199,0.0,-999.0,64,-99.99,,,0.00,weatherlink.com 1.10,2013-05-21 17:55:00,
2013-05-21 13:11:00,91.2,76.0,29.91,SSE,153,1.0,-999.0,62,-99.99,,,0.00,weatherlink.com 1.10,2013-05-21 18:11:00,
2013-05-21 13:26:00,91.3,75.0,29.91,SSW,194,0.0,-999.0,60,-99.99,,,0.00,weatherlink.com 1.10,2013-05-21 18:26:00,
2013-05-21 13:56:00,92.0,77.0,29.90,SSW,210,1.0,-999.0,61,-99.99,,,0.00,weatherlink.com 1.10,2013-05-21 18:56:00,
2013-05-21 14:11:00,91.3,76.0,29.89,SSW,196,3.0,-999.0,61,-99.99,,,0.00,weatherlink.com 1.10,2013-05-21 19:11:00,
2013-05-21 14:26:00,91.7,75.0,29.89,ESE,109,5.0,-999.0,58,-99.99,,,0.00,weatherlink.com 1.10,2013-05-21 19:26:00,
2013-05-21 14:41:00,93.1,78.0,29.89,South,190,2.0,-999.0,62,-99.99,,,0.00,weatherlink.com 1.10,2013-05-21 19:41:00,
2013-05-21 14:56:00,93.0,77.0,29.88,SE,128,1.0,-999.0,59,-99.99,,,0.00,weatherlink.com 1.10,2013-05-21 19:56:00,
2013-05-21 15:11:00,92.4,75.0,29.88,SE,139,7.0,-999.0,58,-99.99,,,0.00,weatherlink.com 1.10,2013-05-21 20:11:00,
2013-05-21 15:26:00,92.3,76.0,29.88,East,86,0.0,-999.0,60,-99.99,,,0.00,weatherlink.com 1.10,2013-05-21 20:26:00,
2013-05-21 15:41:00,91.3,76.0,29.87,SE,131,0.0,-999.0,61,-99.99,,,0.00,weatherlink.com 1.10,2013-05-21 20:41:00,
2013-05-21 15:56:00,91.9,76.0,29.86,South,190,2.0,-999.0,60,-99.99,,,0.00,weatherlink.com 1.10,2013-05-21 20:56:00,
2013-05-21 16:11:00,92.3,76.0,29.85,SSW,213,3.0,-999.0,59,-99.99,,,0.00,weatherlink.com 1.10,2013-05-21 21:11:00,
2013-05-21 16:26:00,92.2,76.0,29.84,SSW,199,1.0,-999.0,60,-99.99,,,0.00,weatherlink.com 1.10,2013-05-21 21:26:00,
2013-05-21 16:41:00,92.5,75.0,29.83,SE,139,2.0,-999.0,57,-99.99,,,0.00,weatherlink.com 1.10,2013-05-21 21:41:00,
2013-05-21 16:56:00,91.7,74.0,29.82,ESE,118,2.0,-999.0,57,-99.99,,,0.00,weatherlink.com 1.10,2013-05-21 21:56:00,
2013-05-21 17:11:00,91.1,74.0,29.82,SSE,159,0.0,-999.0,58,-99.99,,,0.00,weatherlink.com 1.10,2013-05-21 22:11:00,
2013-05-21 17:26:00,89.6,72.0,29.82,South,185,4.0,-999.0,57,-99.99,,,0.00,weatherlink.com 1.10,2013-05-21 22:26:00,
2013-05-21 17:41:00,88.7,74.0,29.81,SSW,197,3.0,-999.0,61,-99.99,,,0.00,weatherlink.com 1.10,2013-05-21 22:41:00,
2013-05-21 17:56:00,88.4,74.0,29.80,SSE,150,0.0,-999.0,63,-99.99,,,0.00,weatherlink.com 1.10,2013-05-21 22:56:00,
2013-05-21 18:11:00,88.1,74.0,29.79,SSW,200,0.0,-999.0,64,-99.99,,,0.00,weatherlink.com 1.10,2013-05-21 23:11:00,
2013-05-21 18:26:00,87.4,73.0,29.79,SSW,197,5.0,-999.0,63,-99.99,,,0.00,weatherlink.com 1.10,2013-05-21 23:26:00,
2013-05-21 18:41:00,86.1,73.0,29.79,ESE,123,1.0,-999.0,66,-99.99,,,0.00,weatherlink.com 1.10,2013-05-21 23:41:00,
2013-05-21 18:56:00,85.2,74.0,29.80,WSW,242,0.0,-999.0,68,-99.99,,,0.00,weatherlink.com 1.10,2013-05-21 23:56:00,
2013-05-21 19:11:00,84.6,74.0,29.81,South,175,0.0,-999.0,70,-99.99,,,0.00,weatherlink.com 1.10,2013-05-22 00:11:00,
2013-05-21 19:26:00,83.9,73.0,29.82,SW,236,0.0,-999.0,69,-99.99,,,0.00,weatherlink.com 1.10,2013-05-22 00:26:00,
2013-05-21 19:41:00,83.4,73.0,29.83,SSE,167,0.0,-999.0,71,-99.99,,,0.00,weatherlink.com 1.10,2013-05-22 00:41:00,
2013-05-21 19:56:00,82.9,73.0,29.83,SSE,168,0.0,-999.0,73,-99.99,,,0.00,weatherlink.com 1.10,2013-05-22 00:56:00,
2013-05-21 20:11:00,82.2,74.0,29.84,SSE,163,0.0,-999.0,75,-99.99,,,0.00,weatherlink.com 1.10,2013-05-22 01:11:00,
2013-05-21 20:26:00,81.6,73.0,29.84,ESE,119,0.0,-999.0,76,-99.99,,,0.00,weatherlink.com 1.10,2013-05-22 01:26:00,
2013-05-21 20:41:00,81.1,73.0,29.85,SE,132,0.0,-999.0,77,-99.99,,,0.00,weatherlink.com 1.10,2013-05-22 01:41:00,
2013-05-21 20:56:00,80.7,74.0,29.84,South,186,0.0,-999.0,79,-99.99,,,0.00,weatherlink.com 1.10,2013-05-22 01:56:00,
2013-05-21 21:11:00,80.2,74.0,29.86,SSW,204,0.0,-999.0,80,-99.99,,,0.00,weatherlink.com 1.10,2013-05-22 02:11:00,
2013-05-21 21:26:00,80.0,74.0,29.86,East,81,0.0,-999.0,81,-99.99,,,0.00,weatherlink.com 1.10,2013-05-22 02:26:00,
2013-05-21 21:41:00,79.7,73.0,29.87,East,82,0.0,-999.0,81,-99.99,,,0.00,weatherlink.com 1.10,2013-05-22 02:41:00,
2013-05-21 21:56:00,79.3,73.0,29.88,East,82,0.0,-999.0,82,-99.99,,,0.00,weatherlink.com 1.10,2013-05-22 02:56:00,
2013-05-21 22:11:00,79.0,74.0,29.89,East,81,0.0,-999.0,83,-99.99,,,0.00,weatherlink.com 1.10,2013-05-22 03:11:00,
2013-05-21 22:26:00,78.6,73.0,29.89,East,82,0.0,-999.0,83,-99.99,,,0.00,weatherlink.com 1.10,2013-05-22 03:26:00,
2013-05-21 22:41:00,78.1,73.0,29.90,East,92,0.0,-999.0,85,-99.99,,,0.00,weatherlink.com 1.10,2013-05-22 03:41:00,
2013-05-21 22:56:00,77.7,73.0,29.91,East,92,0.0,-999.0,85,-99.99,,,0.00,weatherlink.com 1.10,2013-05-22 03:56:00,
2013-05-21 23:11:00,77.3,73.0,29.90,East,92,0.0,-999.0,86,-99.99,,,0.00,weatherlink.com 1.10,2013-05-22 04:11:00,
2013-05-21 23:26:00,76.9,73.0,29.91,East,92,0.0,-999.0,87,-99.99,,,0.00,weatherlink.com 1.10,2013-05-22 04:26:00,
2013-05-21 23:41:00,76.6,73.0,29.91,East,92,0.0,-999.0,88,-99.99,,,0.00,weatherlink.com 1.10,2013-05-22 04:41:00,
2013-05-21 23:56:00,76.5,73.0,29.91,East,92,0.0,-999.0,89,-99.99,,,0.00,weatherlink.com 1.10,2013-05-22 04:56:00,